Location: San Pelegr�n
(42.1868°N, 0.0079°E)
Time: 18:02:46
(UTC+00:00)

Cosmos 1727 Rocket - Pass Details

Date: 24 January 2020
Orbit: 960 x 997 km, 82.9° (Epoch: 23 February)

Event Time Altitude Azimuth Distance (km) Brightness Sun altitude
Rises 18:55:23 0° 351° (N) 3,661 7.0 -20.6°
Reaches altitude 10° 18:57:54 10° 350° (N) 2,708 6.3 -21.1°
Maximum altitude 19:04:05 80° 265° (W) 980 4.0 -22.2°
Drops below altitude 10° 19:10:13 10° 179° (S) 2,686 6.3 -23.4°
Sets 19:12:42 0° 178° (S) 3,630 7.0 -23.8°
